West Palm Beach, FL

6:39 AM EDT on June 20, 2018 (GMT -0400)
Palm Beach International

Weather History for KPBI - June, 2018

Change the Weather History Date:

Thursday, June 14, 2018

  Actual Average Record
Temperature  
Mean Temperature 81 °F 81 °F  
Max Temperature 87 °F 88 °F 98 °F (2011)
Min Temperature 75 °F 74 °F 60 °F (1920)
Degree Days  
Heating Degree Days 0 0  
Month to date heating degree days 0 0  
Since 1 June heating degree days 0 0  
Since 1 July heating degree days 179 233  
Cooling Degree Days 16 16  
Month to date cooling degree days 208 223  
Year to date cooling degree days 1435 1332  
Since 1 June cooling degree days 208 223  
Growing Degree Days 31 (Base 50)    
Moisture  
Dew Point 75 °F    
Average Humidity 90    
Maximum Humidity 100    
Minimum Humidity 79    
Precipitation  
Precipitation 0.09 in 0.29 in 3.55 in (1979)
Month to date precipitation 6.95 3.84  
Year to date precipitation 31.07 22.55  
Snow  
Snow 0.00 in - - ()
Month to date snowfall 0.0  
Since 1 June snowfall 0.0  
Since 1 July snowfall 0.0  
Snow Depth 0.00 in    
Sea Level Pressure  
Sea Level Pressure 30.08 in    
Wind  
Wind Speed 4 mph (SE)    
Max Wind Speed 15 mph    
Max Gust Speed 19 mph    
Visibility 10 miles    
Events Rain , Thunderstorm    
T = Trace of Precipitation, MM = Missing Value Source: NWS Daily Summary

Daily Weather History Graph

Daily Weather History Graph

Search for Another Location

Airport or City:

Astronomy

Jun. 14, 2018 Rise Set
Actual Time 6:26 AM EDT 8:14 PM EDT
Civil Twilight 6:00 AM EDT 8:41 PM EDT
Nautical Twilight 5:28 AM EDT 9:12 PM EDT
Astronomical Twilight 4:55 AM EDT 9:46 PM EDT
Moon 7:17 AM EDT (6/14) 9:18 PM EDT (6/14)
Length of Visible Light 14h 40m
Length of Day
13h 48m
New Moon, 1% of the Moon is Illuminated
Jun 14
New Moon
Jun 20
First Quarter
Jun 28
Full
Jul 6
Last Quarter
Jul 12
New

Hourly Weather History & Observations

Time (EDT) Temp. Heat Index Dew Point Humidity Pressure Visibility Wind Dir Wind Speed Gust Speed Precip Events Conditions
12:53 AM 78.1 °F - 75.9 °F 93% 30.11 in 10.0 mi Calm Calm - N/A   Mostly Cloudy
1:53 AM 77.0 °F - 75.9 °F 96% 30.08 in 10.0 mi Calm Calm - N/A   Mostly Cloudy
2:53 AM 75.9 °F - 75.0 °F 97% 30.06 in 10.0 mi Calm Calm - N/A   Mostly Cloudy
3:53 AM 75.9 °F - 75.0 °F 97% 30.05 in 10.0 mi Calm Calm - N/A   Scattered Clouds
4:53 AM 75.9 °F - 75.0 °F 97% 30.04 in 10.0 mi Calm Calm - N/A   Scattered Clouds
5:53 AM 75.0 °F - 75.0 °F 100% 30.06 in 10.0 mi Calm Calm - N/A   Mostly Cloudy
6:53 AM 75.9 °F - 75.0 °F 97% 30.07 in 10.0 mi North 3.5 mph - N/A   Mostly Cloudy
7:53 AM 78.1 °F - 75.9 °F 93% 30.08 in 10.0 mi Calm Calm - N/A   Mostly Cloudy
8:53 AM 80.1 °F 85.4 °F 75.9 °F 87% 30.11 in 10.0 mi Calm Calm - N/A   Mostly Cloudy
9:53 AM 82.0 °F 88.6 °F 75.0 °F 79% 30.11 in 10.0 mi Calm Calm - N/A   Mostly Cloudy
10:48 AM 84.2 °F 90.9 °F 73.4 °F 70% 30.12 in 10.0 mi Variable 3.5 mph - N/A Thunderstorm Thunderstorm
10:53 AM 86.0 °F 93.8 °F 73.9 °F 67% 30.12 in 10.0 mi Variable 3.5 mph - N/A Thunderstorm Thunderstorm
11:22 AM 84.9 °F 94.1 °F 75.9 °F 74% 30.11 in 10.0 mi East 9.2 mph - N/A   Mostly Cloudy
11:53 AM 82.0 °F 89.4 °F 75.9 °F 82% 30.12 in 3.0 mi South 6.9 mph - 0.00 in Rain Rain
12:31 PM 82.9 °F 90.8 °F 75.9 °F 79% 30.12 in 10.0 mi SSE 8.1 mph - 0.09 in Thunderstorm Thunderstorm
12:53 PM 84.0 °F 92.6 °F 75.9 °F 76% 30.11 in 10.0 mi ESE 6.9 mph - 0.09 in Thunderstorm Thunderstorm
12:58 PM 84.9 °F 95.3 °F 77.0 °F 77% 30.10 in 10.0 mi ESE 8.1 mph - N/A   Scattered Clouds
1:11 PM 86.0 °F 96.9 °F 77.0 °F 74% 30.10 in 10.0 mi SE 9.2 mph - N/A Thunderstorm Thunderstorm
1:41 PM 84.0 °F 91.9 °F 75.0 °F 74% 30.09 in 10.0 mi SE 11.5 mph - N/A   Mostly Cloudy
1:53 PM 84.0 °F 91.2 °F 73.9 °F 72% 30.09 in 10.0 mi SE 6.9 mph - N/A   Mostly Cloudy
2:17 PM 84.9 °F 92.1 °F 73.9 °F 69% 30.08 in 10.0 mi ESE 5.8 mph - N/A Thunderstorm Thunderstorm
2:53 PM 86.0 °F 95.1 °F 75.0 °F 70% 30.07 in 10.0 mi SE 6.9 mph - N/A Thunderstorm Thunderstorm
2:59 PM 86.0 °F 93.8 °F 73.9 °F 67% 30.07 in 10.0 mi ESE 8.1 mph - N/A   Mostly Cloudy
3:35 PM 84.0 °F 91.2 °F 73.9 °F 72% 30.05 in 10.0 mi ESE 12.7 mph - N/A Thunderstorm Thunderstorm
3:53 PM 84.0 °F 91.2 °F 73.9 °F 72% 30.04 in 10.0 mi SE 11.5 mph - N/A Thunderstorm Thunderstorm
4:53 PM 82.9 °F 88.8 °F 73.0 °F 72% 30.05 in 10.0 mi SSE 8.1 mph - N/A Thunderstorm Thunderstorm
5:39 PM 81.0 °F 84.9 °F 71.1 °F 72% 30.05 in 10.0 mi NNW 3.5 mph - N/A   Mostly Cloudy
5:53 PM 81.0 °F 84.9 °F 71.1 °F 72% 30.04 in 10.0 mi NW 3.5 mph - N/A   Mostly Cloudy
6:53 PM 82.0 °F 88.6 °F 75.0 °F 79% 30.04 in 10.0 mi SE 8.1 mph - N/A   Mostly Cloudy
7:53 PM 81.0 °F 87.3 °F 75.9 °F 85% 30.04 in 10.0 mi SE 8.1 mph - N/A   Mostly Cloudy
8:53 PM 82.0 °F 89.4 °F 75.9 °F 82% 30.07 in 10.0 mi South 5.8 mph - N/A   Scattered Clouds
9:53 PM 80.1 °F 85.4 °F 75.9 °F 87% 30.09 in 10.0 mi South 5.8 mph - N/A   Scattered Clouds
10:53 PM 80.1 °F 85.4 °F 75.9 °F 87% 30.09 in 10.0 mi South 5.8 mph - N/A   Mostly Cloudy
11:53 PM 80.1 °F 85.4 °F 75.9 °F 87% 30.09 in 10.0 mi Calm Calm - N/A   Mostly Cloudy